Flag for France Weather past 2 weeks in Marseille, France

Now
48 °F

Clear.


Feels Like: 43 °F
Forecast: 53 / 63 °F
Wind: 14 mph from Northwest

Location: Marseille / Marignane

Current Time: Dec 17, 2014 at 11:01:36 PM

Latest Report: Dec 17, 2014 at 10:30 PM


Visibility: 10 mi

Pressure: 30.04 "Hg

Humidity: 87%

Dew point: 45 °F

Location of MarseilleLocation

Historic Weather in Marseille — Graph

°F

Marseille temperature yesterday

Maximum temperature yesterday: 55 °F (at 1:30 PM)
Minimum temperature yesterday: 46 °F (at 4:30 AM)
Average temperature yesterday: 51 °F

Past Weeks' High & Low Weather Summary

 TemperatureHumidityPressure
High64 °F (Dec 14, 12:30 PM)94% (Dec 4, 9:00 PM)30.30 "Hg (Dec 4, 9:00 PM)
Low36 °F (Dec 10, 2:30 AM)37% (Dec 10, 3:00 PM)29.74 "Hg (Dec 2, 10:00 PM)
Average49 °F74%30.00 "Hg
* Reported Dec 2 10:00 PM — Dec 17 10:00 PM, Marseille, Weather by CustomWeather, © 2014

Note: Actual official high and low records may vary slightly from our data, if they occured in-between our weather recording intervals... More about our weather records

Advertising

Marseille weather history for previous 24 hours

 ConditionsComfort  
Time TempWeatherWind HumidityBarometerVisibility
10:00 PM
Dec 17
46 °FClear.12 mph87%30.01 "Hg10 mi
9:30 PM48 °FClear.8 mph87%30.01 "Hg10 mi
9:00 PM48 °FPassing clouds.8 mph87%30.04 "HgN/A
8:30 PM48 °FPassing clouds.7 mph87%30.04 "HgN/A
8:00 PM48 °FPassing clouds.8 mph87%30.01 "HgN/A
7:30 PM46 °FLight rain. Clear.9 mph93%30.01 "HgN/A
7:00 PM48 °FLight rain. Clear.10 mph87%30.01 "HgN/A
6:30 PM48 °FClear.15 mph87%30.01 "Hg10 mi
6:00 PM48 °FClear.12 mph82%30.01 "Hg10 mi
5:30 PM48 °FLight rain. Clear.9 mph82%30.01 "HgN/A
5:00 PM48 °FSunny.8 mph82%30.01 "Hg10 mi
4:30 PM48 °FSunny.7 mph82%30.01 "Hg10 mi
4:00 PM48 °FSunny.8 mph82%30.01 "Hg10 mi
3:30 PM50 °FLight rain. Clear.10 mph76%30.01 "HgN/A
3:00 PM50 °FLight rain. Clear.13 mph76%30.01 "HgN/A
2:30 PM50 °FLight rain. Clear.15 mph71%30.01 "HgN/A
2:00 PM50 °FLight rain. Clear.16 mph67%30.01 "HgN/A
1:30 PM52 °FSunny.17 mph58%30.01 "Hg10 mi
1:00 PM52 °FSunny.16 mph54%30.01 "Hg10 mi
12:30 PM54 °FSunny.18 mph51%30.01 "Hg10 mi
12:00 PM52 °FSunny.21 mph54%30.01 "Hg10 mi
11:30 AM52 °FSunny.17 mph54%30.04 "Hg10 mi
11:00 AM50 °FSunny.15 mph58%30.04 "Hg10 mi
10:30 AM50 °FSunny.15 mph62%30.04 "Hg10 mi
10:00 AM50 °FSunny.18 mph58%30.04 "Hg10 mi
9:30 AM50 °FSunny.21 mph62%30.01 "Hg10 mi
9:00 AM50 °FSunny.18 mph62%30.01 "Hg10 mi
8:30 AM48 °FSunny.21 mph66%29.98 "Hg10 mi
8:00 AM48 °FClear.23 mph66%29.98 "Hg10 mi
7:34 AM48 °FClear.23 mph66%29.98 "Hg10 mi
7:00 AM48 °FClear.17 mph66%29.95 "Hg10 mi
6:30 AM48 °FClear.18 mph66%29.95 "Hg10 mi
6:00 AM48 °FClear.17 mph71%29.95 "Hg10 mi
5:30 AM48 °FClear.18 mph66%29.92 "Hg10 mi
5:00 AM48 °FClear.20 mph66%29.92 "Hg10 mi
4:30 AM48 °FClear.21 mph71%29.92 "Hg10 mi
4:00 AM50 °FClear.22 mph67%29.92 "Hg10 mi
3:30 AM50 °FClear.21 mph67%29.89 "Hg10 mi
3:00 AM50 °FClear.18 mph67%29.89 "HgN/A
2:30 AM50 °FClear.22 mph67%29.89 "HgN/A
2:00 AM50 °FClear.22 mph67%29.89 "HgN/A
1:30 AM50 °FClear.25 mph67%29.86 "HgN/A
12:30 AM50 °FClear.23 mph67%29.86 "HgN/A
12:00 AM50 °FClear.21 mph67%29.86 "Hg10 mi
11:30 PM
Dec 16
50 °FClear.21 mph67%29.86 "Hg10 mi
11:00 PM52 °FClear.17 mph67%29.86 "Hg10 mi
Weather by CustomWeather, © 2014

See weather overviewHow to use our weather pages